Date String (YYYY-MM-DD hh:mm:ss) UTC,Instrument flags,absolute air pressure of the measurement (hPa),sample flow rate (lpm),inlet stack bypass flow (lpm),air temperature of the measurement (°C),ambient temperature measured by the external sensor (°C),aerosol sample conditioner tube jacket temperature (°C),OPC LED temperature (°C),internal box temperature (°C),relative humidity of the measurement (%),span deviation,mass concentration of particles derived from Lorenz-Mie calculation of OPC scattering (μg/m³),mass concentration of particles derived from Lorenz-Mie calculation of OPC scattering (μg/m³),mass concentration of particles derived from Lorenz-Mie calculation of OPC scattering (μg/m³)
DateTimeUTC,F1_M11,P_M11,Q1_M11,Q2_M11,T1_M11,T2_M11,T3_M11,T4_M11,T5_M11,U1_M11,ZSPAN_M11,X0_M11,X2_M11,X1_M11
2024-02-16 17:00:00,SystemResetWarning,0830.0,4.99,000.00,018.4,017.9,000.0,027.0,020.0,18.6,0001.5,0010.49,0007.47,0007.19
2024-02-16 17:01:00,SystemResetWarning,0830.0,5.00,000.00,018.4,017.8,000.0,027.0,020.0,18.6,0001.5,0010.78,0007.45,0007.16
2024-02-16 17:02:00,SystemResetWarning,0830.0,5.00,000.00,018.4,017.8,000.0,027.0,020.0,18.7,0001.5,0010.73,0007.41,0007.13
2024-02-16 17:03:00,SystemResetWarning,0830.0,5.01,000.00,018.4,017.7,000.0,027.0,020.0,18.7,0001.4,0010.69,0007.39,0007.11
2024-02-16 17:04:00,SystemResetWarning,0830.0,5.00,000.00,018.4,017.7,000.0,027.0,020.0,18.7,0001.5,0010.70,0007.39,0007.11
2024-02-16 17:05:00,SystemResetWarning,0830.0,4.98,000.00,018.3,017.7,000.0,027.0,020.0,18.7,0001.5,0010.72,0007.40,0007.10
2024-02-16 17:06:00,SystemResetWarning,0830.0,5.00,000.00,018.3,017.7,000.0,027.0,020.0,18.7,0001.3,0010.87,0007.38,0007.09
2024-02-16 17:07:00,SystemResetWarning,0830.0,5.00,000.00,018.3,017.7,000.0,026.9,020.0,18.7,0001.5,0010.82,0007.34,0007.06
2024-02-16 17:08:00,SystemResetWarning,0830.0,5.00,000.00,018.3,017.7,000.0,026.9,020.0,18.7,0001.6,0011.32,0007.29,0007.03
2024-02-16 17:09:00,SystemResetWarning,0830.0,5.00,000.00,018.3,017.7,000.0,027.0,020.0,18.7,0001.8,0011.33,0007.26,0007.00
2024-02-16 17:10:00,SystemResetWarning,0830.0,5.00,000.00,018.3,017.6,000.0,027.0,020.0,18.7,0002.1,0011.32,0007.25,0006.98
2024-02-16 17:11:00,SystemResetWarning,0830.0,5.00,000.00,018.3,017.6,000.0,027.0,020.0,18.7,0002.2,0011.34,0007.22,0006.95
2024-02-16 17:12:00,SystemResetWarning,0830.0,5.01,000.00,018.3,017.6,000.0,027.0,020.0,18.7,0002.1,0010.98,0007.19,0006.94
2024-02-16 17:13:00,SystemResetWarning,0830.0,4.99,000.00,018.3,017.6,000.0,027.0,020.0,18.7,0002.0,0010.95,0007.19,0006.95
2024-02-16 17:14:00,SystemResetWarning,0830.0,5.00,000.00,018.3,017.6,000.0,027.0,020.0,18.7,0002.2,0010.94,0007.18,0006.94
2024-02-16 17:15:00,SystemResetWarning,0830.0,5.00,000.00,018.3,017.6,000.0,027.0,020.0,18.7,0001.9,0010.94,0007.16,0006.92
2024-02-16 17:16:00,SystemResetWarning,0830.0,5.00,000.00,018.3,017.6,000.0,027.0,020.0,18.8,0002.1,0010.91,0007.16,0006.92
2024-02-16 17:17:00,SystemResetWarning,0830.0,5.00,000.00,018.3,017.6,000.0,027.0,020.0,18.7,0002.3,0010.79,0007.14,0006.89
2024-02-16 17:18:00,SystemResetWarning,0830.0,5.00,000.00,018.3,017.6,000.0,027.0,020.0,18.7,0002.2,0010.74,0007.13,0006.87
2024-02-16 17:19:00,SystemResetWarning,0830.0,5.00,000.00,018.3,017.5,000.0,027.0,020.0,18.7,0001.8,0010.30,0007.11,0006.86
2024-02-16 17:20:00,SystemResetWarning,0830.0,5.00,000.00,018.3,017.5,000.0,027.0,020.0,18.7,0001.5,0010.16,0007.13,0006.86
2024-02-16 17:21:00,SystemResetWarning,0830.0,5.00,000.00,018.3,017.5,000.0,027.0,020.0,18.7,0001.5,0010.16,0007.11,0006.84
2024-02-16 17:22:00,SystemResetWarning,0830.0,5.00,000.00,018.3,017.5,000.0,026.9,020.0,18.7,0001.6,0010.18,0007.11,0006.82
2024-02-16 17:23:00,SystemResetWarning,0830.0,5.01,000.00,018.2,017.5,000.0,027.0,020.0,18.8,0001.4,0009.86,0007.08,0006.80
2024-02-16 17:24:00,SystemResetWarning,0830.0,5.01,000.00,018.2,017.5,000.0,026.9,020.0,18.9,0001.3,0009.89,0007.06,0006.77
2024-02-16 17:25:00,SystemResetWarning,0830.0,5.00,000.00,018.3,017.5,000.0,026.9,020.0,18.9,0001.5,0009.86,0007.04,0006.75
2024-02-16 17:26:00,SystemResetWarning,0830.0,4.99,000.00,018.3,017.5,000.0,026.9,020.0,18.9,0001.9,0009.93,0007.00,0006.73
2024-02-16 17:27:00,SystemResetWarning,0830.0,4.99,000.00,018.2,017.5,000.0,026.9,020.0,18.9,0001.8,0010.01,0006.97,0006.69
2024-02-16 17:28:00,SystemResetWarning,0830.0,5.00,000.00,018.2,017.5,000.0,026.9,020.0,18.9,0001.7,0010.04,0006.95,0006.67
2024-02-16 17:29:00,SystemResetWarning,0830.0,5.01,000.00,018.3,017.8,000.0,027.0,020.2,18.9,0001.7,0010.02,0006.94,0006.65
2024-02-16 17:30:00,SystemResetWarning,0830.0,5.01,000.00,018.4,018.6,000.0,027.1,020.6,18.7,0002.1,0009.99,0006.92,0006.62
2024-02-16 17:31:00,SystemResetWarning,0830.0,5.00,000.00,018.7,019.1,000.0,027.1,020.9,18.5,0002.3,0009.89,0006.88,0006.59
2024-02-16 17:32:00,SystemResetWarning,0830.0,4.99,000.00,018.7,018.9,000.0,027.0,020.7,18.5,0002.0,0009.87,0006.87,0006.58
2024-02-16 17:33:00,SystemResetWarning,0830.0,5.00,000.00,018.6,018.7,000.0,027.0,020.5,18.5,0001.8,0010.06,0006.84,0006.55
2024-02-16 17:34:00,SystemResetWarning,0830.0,5.01,000.00,018.6,018.6,000.0,027.0,020.3,18.6,0001.9,0010.28,0006.83,0006.53
2024-02-16 17:35:00,SystemResetWarning,0830.0,5.01,000.00,018.6,018.4,000.0,026.9,020.2,18.6,0001.9,0010.19,0006.80,0006.51
2024-02-16 17:36:00,SystemResetWarning,0830.0,5.00,000.00,018.5,018.3,000.0,026.9,020.1,18.6,0001.8,0010.16,0006.78,0006.49
2024-02-16 17:37:00,SystemResetWarning,0830.0,4.99,000.00,018.5,018.2,000.0,026.9,020.1,18.6,0001.5,0010.10,0006.79,0006.49
2024-02-16 17:38:00,SystemResetWarning,0829.9,5.00,000.00,018.4,018.1,000.0,026.9,020.1,18.7,0001.6,0010.08,0006.78,0006.47
2024-02-16 17:39:00,SystemResetWarning,0829.8,5.00,000.00,018.4,018.0,000.0,026.9,020.0,18.7,0001.6,0010.00,0006.77,0006.46
2024-02-16 17:40:00,SystemResetWarning,0829.9,4.99,000.00,018.4,018.0,000.0,026.9,020.0,18.7,0001.6,0009.94,0006.73,0006.44
2024-02-16 17:41:00,SystemResetWarning,0829.9,5.00,000.00,018.4,017.9,000.0,026.9,020.0,18.7,0001.3,0009.89,0006.70,0006.42
2024-02-16 17:42:00,SystemResetWarning,0829.9,5.00,000.00,018.4,017.9,000.0,026.9,020.0,18.7,0001.1,0009.84,0006.66,0006.39
2024-02-16 17:43:00,SystemResetWarning,0829.8,5.00,000.00,018.3,017.8,000.0,026.9,020.0,18.7,0001.0,0009.82,0006.65,0006.38
2024-02-16 17:44:00,SystemResetWarning,0829.8,5.00,000.00,018.3,017.8,000.0,026.9,020.0,18.8,0000.9,0009.72,0006.65,0006.37
2024-02-16 17:45:00,SystemResetWarning,0829.9,5.00,000.00,018.3,017.8,000.0,026.9,020.0,18.7,0000.9,0009.42,0006.63,0006.35
2024-02-16 17:46:00,SystemResetWarning,0829.9,5.00,000.00,018.3,017.7,000.0,026.9,020.0,18.7,0001.1,0009.50,0006.63,0006.32
2024-02-16 17:47:00,SystemResetWarning,0829.9,5.00,000.00,018.3,017.7,000.0,026.9,020.0,18.7,0001.1,0009.50,0006.62,0006.29
2024-02-16 17:48:00,SystemResetWarning,0829.9,5.00,000.00,018.3,017.7,000.0,026.9,020.0,18.7,0001.2,0009.39,0006.57,0006.24
2024-02-16 17:49:00,SystemResetWarning,0829.8,5.00,000.00,018.3,017.7,000.0,026.9,020.0,18.7,0001.4,0009.24,0006.52,0006.22
2024-02-16 17:50:00,SystemResetWarning,0829.8,5.00,000.00,018.3,017.6,000.0,027.0,020.0,18.8,0001.3,0009.20,0006.50,0006.20
2024-02-16 17:51:00,SystemResetWarning,0829.8,5.00,000.00,018.3,017.6,000.0,026.9,020.0,18.7,0001.3,0009.21,0006.51,0006.21
2024-02-16 17:52:00,SystemResetWarning,0829.9,4.99,000.00,018.3,017.6,000.0,026.9,020.0,18.6,0001.4,0009.19,0006.51,0006.20
2024-02-16 17:53:00,SystemResetWarning,0829.9,5.00,000.00,018.3,017.6,000.0,026.9,020.0,18.7,0001.5,0009.21,0006.52,0006.21
2024-02-16 17:54:00,SystemResetWarning,0829.9,5.00,000.00,018.3,017.6,000.0,026.9,020.0,18.7,0002.1,0009.55,0006.52,0006.21
2024-02-16 17:55:00,SystemResetWarning,0829.9,5.00,000.00,018.2,017.6,000.0,026.9,020.0,18.7,0002.5,0009.64,0006.51,0006.20
2024-02-16 17:56:00,SystemResetWarning,0829.9,4.99,000.00,018.2,017.6,000.0,026.9,020.0,18.6,0002.5,0009.63,0006.51,0006.20
2024-02-16 17:57:00,SystemResetWarning,0829.8,4.99,000.00,018.2,017.6,000.0,026.9,020.0,18.6,0002.6,0009.56,0006.49,0006.20
2024-02-16 17:58:00,SystemResetWarning,0829.8,5.00,000.00,018.2,017.6,000.0,026.9,020.0,18.6,0002.2,0009.58,0006.47,0006.19
2024-02-16 17:59:00,SystemResetWarning,0829.8,4.99,000.00,018.2,017.5,000.0,026.9,020.0,18.6,0002.2,0009.53,0006.44,0006.17
